Probability
0 0 0 0 0 0 0 0 0 0 0 0 0 0 0 0 0 0 0 0 0 0 0 0 0 0 0 0 0 0 0 0 0 0 0 0 0 0
0 0 0 0 0 0 0 0 0 0 0 0 0 0 0 0 0 0 0 0 0 0 0 0 0 0 0 0 0 0 0 0 0 0 0 0 0 0
0 0 0 0 0 0 0 0 0 0 0 0 0 0 0 0 0 0 0 0 0 0 0 0 0 0 0 0 0 0 0 0 0 0 0 0 0 0
0 0 0 0 0 0 0 0 0 0 0 0 0 0 0 0 0 0 0 0 0 0 0 0 0 0 0 0 0 0 0 0 0 0 0 0 0 0
0 0 0 0 0 0 0 0 0 0 0 0 0 0 0 0 0 0 0 0 0 0 0 0 0 0 0 0 0 0 0 0 0 0 0 0 0 0
0 0 0 0 0 0 0 0 0 0 0 0 0 0 0 0 0 0 0 0 0 0 0 0 0 0 0 0 0 0 0 0 0 0 0 0 0 0
0 0 0 0 0 0 0 0 0 0 0 0 0 0 0 0 0 0 0 0 0 0 0 0 0 0 0 0 0 0 0 0 0 0 0 0 0 0
0 0 0 0 0 0 0 0 0 0 0 0 0 0 0 0 0 0 0 0 0 0 0 0 0 0 0 0 0 0 0 0 0 0 0 0 0 0
0 0 0 0 0 0 0 0 0 0 0 0 0 0 0 0 0 0 0 0 0 0 0 0 0 0 0 0 0 0 0 0 0 0 0 0 0 0
0 0 0 0 0 0 0 0 0 0 0 0 0 0 0 0 0 0 0 0 0 0 0 0 0 0 0 0 0 0 0 0 0 0 0 0 0 0
0 0 0 0 0 0 0 0 0 0 0 0 0 0 0 0 0 0 0 0 0 0 0 0 0 0 0 0 0 0 0 0 0 0 0 0 0 0
0 0 0 0 0 0 0 0 0 0 0 0 0 0 0 0 0 0 0 0 0 0 0 0 0 0 0 0 0 0 0 0 0 0 0 0 0 0
0 0 0 0 0 0 0 0 0 0 0 0 0 0 0 0 0 0 0 0 0 0 0 0 0 0 0 0 0 0 0 0 0 0 0 0 0 0
0 0 0 0 0 0 0 0 0 0 0 0 0 0 0 0 0 0 0 0 0 0 0 0 0 0 0 0 0 0 0 0 0 0 0 0 0 0
0 0 0 0 0 0 0 0 0 0 0 0 0 0 0 0 0 0 0 0 0 0 0 0 0 0 0 0 0 0 0 0 0 0 0 0 0 0
0 0 0 0 0 0 0 0 0 0 0 0 0 0 0 0 0 0 0 0 0 0 0 0 0 0 0 0 0 0 0 0 0 0 0 0 0 0
0 0 0 0 0 0 0 0 0 0 0 0 0 0 0 0 0 0 0 0 0 0 0 0 0 0 0 0 0 0 0 0 0 0 0 0 0 0
0 0 0 0 0 0 0 0 0 0 0 0 0 0 0 0 0 0 0 0 0 0 0 0 0 0 0 0 0 0 0 0 0 0 0 0 0 0
0 0 0 0 0 0 0 0 0 0 0 0 0 0 0 0 0 0 0 0 0 0 0 0 0 0 0 0 0 0 0 0 0 0 0 0 0 0
0 0 0 0 0 0 0 0 0 0 0 0 0 0 0 0 0 0 0 0 0 0 0 0 0 0 0 0 0 0 0 0 0 0 0 0 0 0
0 0 0 0 0 0 0 0 0 0 0 0 0 0 0 0 0 0 0 0 0 0 0 0 0 0 0 0 0 0 0 0 0 0 0 0 0 0
0 0 0 0 0 0 0 0 0 0 0 0 0 0 0 0 0 0 0 0 0 0 0 0 0 0 0 0 0 0 0 0 0 0 0 0 0 0
0 0 0 0 0 0 0 0 0 0 0 0 0 0 0 0 0 0 0 0 0 0 0 0 0 0 0 0 0 0 0 0 0 0 0 0 0 0
Wind_Speed
7 6 4 3 3 2 3 3 3 2 3 3 2 1 2 3 8 5 5 14 21 22 22 23 23 23 23 24 24 24 24 24 24 25 25 25 25 25
6 7 5 3 3 2 2 2 2 3 3 3 3 3 3 5 11 6 6 19 20 21 22 23 23 24 24 24 24 24 24 24 25 25 25 26 26 26
6 6 5 4 3 2 2 2 2 3 4 4 3 3 4 6 8 6 7 7 9 20 23 24 24 23 24 24 24 24 24 25 25 25 26 26 26 26
7 6 4 3 3 2 2 2 2 3 4 5 3 3 5 6 7 8 8 8 7 19 23 23 23 23 23 23 23 24 24 25 25 25 26 26 26 27
6 5 4 3 2 1 2 2 3 3 3 4 5 3 4 5 6 7 8 8 10 14 19 21 22 23 23 24 25 25 26 26 25 25 26 26 26 27
5 4 3 2 2 2 2 3 3 3 3 4 5 5 5 5 5 6 8 6 8 10 14 16 19 22 24 26 26 26 26 25 25 25 26 26 26 26
5 3 2 1 1 2 2 3 3 3 3 4 5 5 5 5 5 5 10 9 8 9 8 7 9 9 12 18 22 24 25 25 26 26 26 26 26 26
4 3 1 1 3 5 8 8 7 4 4 4 5 7 8 7 7 8 10 11 9 3 5 9 8 10 9 7 19 26 26 27 27 26 26 26 26 26
3 2 1 1 3 3 6 9 9 12 12 8 7 8 9 9 9 11 10 10 12 8 9 13 8 11 9 12 24 26 27 27 27 26 25 25 25 25
2 1 1 2 3 5 5 5 5 6 9 7 7 9 9 9 9 10 10 10 10 8 6 11 10 11 11 8 20 26 27 25 24 24 24 24 25 25
1 0 1 3 8 11 5 5 6 6 11 15 16 16 20 20 16 8 7 9 11 8 4 6 6 7 9 10 13 21 22 23 25 26 26 25 25 25
0 1 4 6 10 11 5 4 6 7 7 8 10 12 11 12 15 7 5 7 8 7 3 3 4 5 9 5 5 7 11 20 25 26 26 25 25 15
1 1 3 10 12 13 11 4 9 10 4 5 7 8 7 6 6 5 5 6 9 9 6 4 6 4 7 9 5 7 10 10 11 14 20 23 23 18
1 2 4 12 13 13 9 10 14 11 4 5 6 7 7 7 7 7 8 9 11 14 13 10 9 8 9 12 11 7 7 8 10 12 10 16 18 20
2 7 10 12 12 8 10 13 9 4 5 6 7 8 7 8 8 8 9 8 11 12 13 12 12 11 10 12 11 11 11 10 10 9 8 8 9 9
3 5 9 10 8 8 8 7 4 4 5 6 7 8 8 8 8 7 8 9 10 11 8 10 11 12 12 13 13 15 12 10 8 8 9 10 10 10
3 2 3 4 4 4 4 4 4 4 5 6 7 8 9 9 9 7 6 7 9 11 13 8 7 10 14 13 14 15 14 13 12 10 10 12 11 10
4 2 4 4 5 5 6 7 6 5 6 7 7 8 9 9 10 9 8 9 11 11 12 11 10 10 8 10 17 16 13 12 11 11 11 13 14 10
3 3 4 4 5 5 6 6 7 7 7 7 8 8 9 9 10 10 10 10 11 12 12 10 10 10 13 15 9 14 12 13 12 12 11 11 14 12
2 3 4 5 5 6 6 7 7 8 7 7 8 8 8 9 10 11 10 11 12 13 13 10 8 9 11 14 14 13 14 13 12 13 12 11 12 16
4 4 5 5 6 6 6 7 7 8 9 9 9 9 9 9 10 11 11 16 15 12 13 13 12 17 12 10 12 13 11 12 15 14 13 12 12 11
4 5 5 6 6 6 7 7 8 8 9 9 9 9 9 9 11 13 12 12 12 12 14 13 12 11 9 11 14 15 16 15 14 19 20 18 11 7
5 6 6 6 6 6 6 7 9 9 9 9 9 9 10 11 11 11 12 12 12 13 14 14 12 10 10 11 12 13 17 16 12 12 11 14 18 21
Wind_Direction
120 115 109 103 101 103 118 139 155 215 269 271 275 262 240 254 291 295 279 302 307 307 306 302 300 298 296 294 292 291 290 289 288 286 284 282 280 279
117 115 108 109 113 115 130 144 157 176 233 252 246 252 270 286 297 302 289 304 307 305 301 300 299 296 294 292 291 290 289 288 286 284 283 282 282 281
108 113 118 125 126 130 139 155 176 179 231 261 251 264 275 279 290 286 281 278 284 298 301 299 298 296 295 294 292 291 289 288 287 286 285 284 283 282
114 114 118 124 123 139 167 194 208 206 220 263 271 271 266 273 278 284 293 294 285 296 299 299 299 298 296 294 293 292 292 290 288 286 284 282 281 280
112 119 127 133 145 183 207 221 230 232 219 245 272 262 267 273 282 283 284 284 288 293 298 298 296 295 295 296 296 296 294 291 288 285 282 280 278 277
105 116 133 153 177 216 234 240 241 249 248 255 269 272 267 268 271 289 298 284 287 290 288 288 291 295 295 295 295 294 292 289 286 283 280 277 275 274
110 108 106 99 284 258 265 254 243 246 257 265 277 285 286 291 290 288 297 297 283 272 275 276 282 282 285 288 291 289 287 286 284 283 281 279 277 275
121 104 74 41 347 345 323 307 293 281 277 269 282 288 291 289 291 291 295 300 298 266 281 288 280 283 282 274 284 288 288 289 287 286 284 281 278 276
118 109 77 352 4 312 300 302 303 301 298 292 285 283 287 286 286 287 285 285 288 291 294 291 283 282 280 282 289 290 291 290 289 287 285 282 279 277
122 152 215 303 302 288 264 268 269 276 287 285 264 269 273 276 271 280 288 290 282 275 268 281 285 282 283 278 285 286 288 289 289 289 288 287 284 281
136 118 310 282 298 310 308 289 288 287 300 300 296 296 299 303 304 301 298 298 296 290 252 259 277 287 282 273 275 281 286 290 292 291 289 286 284 281
20 309 317 312 309 317 309 293 295 293 292 299 303 304 300 296 300 289 276 285 291 293 254 257 279 305 298 262 253 272 280 285 287 287 287 286 285 282
302 292 292 317 320 321 323 308 294 305 310 309 303 299 296 289 285 273 258 263 276 274 275 283 280 267 269 289 276 261 269 275 281 281 284 284 283 278
296 288 296 320 328 329 327 313 316 328 327 307 300 299 299 299 297 291 279 266 259 266 274 274 274 275 279 284 287 280 271 272 274 276 275 281 281 278
312 323 329 333 335 332 322 326 335 330 307 302 301 298 294 290 293 294 289 277 271 264 263 257 256 265 266 272 278 283 292 287 273 267 268 265 265 268
329 334 339 339 336 325 326 328 314 295 300 296 298 298 299 297 295 293 297 302 299 293 264 241 243 250 262 266 271 278 278 275 278 271 272 273 266 257
343 0 343 334 334 328 320 309 302 303 305 299 299 301 302 302 299 298 289 293 289 294 302 294 249 242 249 259 270 270 272 272 270 274 277 278 270 256
5 346 328 324 321 320 319 318 313 307 304 303 300 296 298 300 300 299 292 292 292 292 292 295 299 295 279 253 236 256 267 271 274 272 268 274 277 264
7 320 310 309 307 306 305 305 304 303 301 297 294 294 295 295 296 298 298 296 294 293 291 290 292 295 301 303 274 228 252 275 280 278 271 267 273 275
318 303 302 302 302 301 300 300 300 303 301 297 294 293 292 293 295 296 296 296 297 298 298 295 290 291 292 294 294 286 263 265 275 279 280 274 269 271
309 302 298 297 296 295 294 294 294 295 295 295 293 292 292 293 294 295 296 298 300 298 300 300 294 297 293 287 286 288 286 265 265 274 281 281 282 278
298 297 297 294 293 291 291 292 293 292 292 291 291 291 292 291 293 296 296 298 298 297 296 296 296 298 295 294 294 295 299 300 290 283 273 266 271 274
294 293 292 291 288 286 287 288 288 289 288 289 290 292 293 294 292 292 294 296 298 299 302 303 304 302 298 295 295 296 298 302 304 304 293 279 271 268